Other Public Products
Issued by NWS Charleston, SC

Current Version | Previous Version | Graphics & Text | Print | Product List | Glossary On
Versions: 1 2 3 4 5 6 7 8 9 10 11 12 13 14 15 16 17 18 19 20 21 22 23 24 25 26 27 28 29 30 31 32 33 34 35 36 37 38 39 40 41 42 43 44 45 46 47 48 49 50
764
FPUS82 KCHS 252112
OPUCHS

TEST...KCHS/KSAV Gateway Observations...TEST
National Weather Service Charleston SC
500 PM EDT THU MAY 25 2017

NOTE: "fair" indicates few or no clouds below 12,000 feet with no
significant weather and/or obstructions to visibility.

SCZ050-WAZ558-NCZ071-TXZ119-213-PAZ071-DCZ001-FLZ074-172-MI076-
NYZ176-178-MAZ016-IL014-TNZ027-NJZ106-GAZ044-MD014-252200-

...Gateway Observations for Charleston International...

CITY           SKY/WX    TMP DP  RH WIND       PRES   REMARKS
Chas Airport   MOSUNNY   76  50  40 W15G25    29.73R
Seattle        FAIR      66  46  48 NW7       29.89
Charlotte      CLOUDY    71  50  47 W14G25    29.65R
Dallas DFW     PTSUNNY   90  56  31 S25G37    29.60F
Dallas Love    PTSUNNY   91  57  31 S26G33    29.62F
Philladelphia  CLOUDY    66  61  84 NE10      29.47F
Wash National  CLOUDY    73  58  59 SW8       29.44S THUNDER
Baltimore      PTSUNNY   73  60  63 CALM      29.43F
Miami          CLOUDY    87  74  64 W12       29.89R HX  95
Detroit        CLOUDY    62  59  90 N6        29.49S
Newark         DRIZZLE   59  59 100 NE6       29.53F FOG
Laguardia      CLOUDY    57  56  96 NE20      29.53F FOG
J F K          CLOUDY    60  60 100 NE10      29.53F FOG
Boston Logan   LGT RAIN  52  52 100 NE17      29.72F FOG
Ft. Lauderdale CLOUDY    84  76  76 W14       29.88S HX  93
Chicago O`Hare CLOUDY    68  52  56 N9        29.64S
Chicago Midway PTSUNNY   68  54  60 N9        29.64S
Houston Bush   MOSUNNY   89  59  36 S14G21    29.77F
Houston Hobby  MOSUNNY   86  61  42 S16G25    29.79F
Nashville      PTSUNNY   74  50  42 W12G21    29.76S
Atlanta        MOSUNNY   72  49  44 W15G23    29.80S

$$

GAZ044-118-TXZ119-213-NCZ071-DCZ001-MDZ014-506-PAZ021-071-NJZ106-
NYZ176-178-MAZ106-OHZ011-021-055-MIZ076-KYZ091-ILZ014-INZ047-
MNZ060-ONZ431-252200-

...Gateway Observations for Savannah International...

CITY           SKY/WX    TMP DP  RH WIND       PRES   REMARKS
Savannah Arpt  MOSUNNY   81  50  33 W21G26    29.78S
Atlanta        MOSUNNY   72  49  44 W15G23    29.80S
Charlotte      CLOUDY    71  50  47 W14G25    29.65R
Dallas DFW     PTSUNNY   90  56  31 S25G37    29.60F
Houston Bush   MOSUNNY   89  59  36 S14G21    29.77F
Wash National  CLOUDY    73  58  59 SW8       29.44S THUNDER
Wash Dulles    CLOUDY    70  58  65 CALM      29.43F
Baltimore      PTSUNNY   73  60  63 CALM      29.43F
Philadelphia   CLOUDY    66  61  84 NE10      29.47F
Newark         DRIZZLE   59  59 100 NE6       29.53F FOG
Laguardia      CLOUDY    57  56  96 NE20      29.53F FOG
J F K          CLOUDY    60  60 100 NE10      29.53F FOG
Boston         LGT RAIN  52  52 100 NE17      29.72F FOG
Pittsburg      PTSUNNY   65  56  72 W12G20    29.47S
Akron          LGT RAIN  61  55  81 SW8       29.48S
Cleveland      LGT RAIN  62  57  83 SW5       29.49S
Cincinnati     CLOUDY    61  58  90 W18G25    29.59R
Columbus       LGT RAIN  64  58  81 E5        29.48R
Detroit        CLOUDY    62  59  90 N6        29.49S
Chicago O`Hare CLOUDY    68  52  56 N9        29.64S
Minneapolis    LGT RAIN  66  51  58 S8        29.64F
Indianapolis   CLOUDY    62  55  77 NW13      29.64R
Toronto Canada LGT RAIN  52  50  93 E17G25    29.50S FOG

$$




USA.gov is the U.S. government's official web portal to all federal, state and local government web resources and services.